Location: Airlie Beach - Cannonvale QLD, Australia
(20.2768°S, 148.7558°E)
Time: 15:07:55
(UTC+10:00)

Tiangong - Pass Details

Date: 22 May 2026
Orbit: 381 x 392 km, 41.5° (Epoch: 8 June)

Event Time Altitude Azimuth Distance (km) Brightness Sun altitude
Rises 05:56:48 0° 306° (NW) 2,245 1.4 -8.0°
Reaches altitude 10° 05:58:52 10° 304° (WNW) 1,395 0.3 -7.5°
Maximum altitude 06:02:00 72° 218° (SW) 405 -2.2 -6.8°
Drops below altitude 10° 06:05:10 10° 133° (SE) 1,404 1.1 -6.1°
Sets 06:07:15 0° 131° (SE) 2,260 2.2 -5.7°
